Location: La Fredeussais
(48.1780°N, 1.3980°W)
Time: 18:31:36
(UTC+00:00)

Okean 1 - Pass Details

Date: 09 May 2021
Orbit: 537 x 555 km, 82.5° (Epoch: 15 June)

Event Time Altitude Azimuth Distance (km) Brightness Sun altitude
Exits shadow 22:41:25 37° 79° (E) 870 4.2 -21.8°
Drops below altitude 10° 22:44:48 10° 25° (NNE) 1,827 6.6 -22.0°
Sets 22:47:03 0° 17° (NNE) 2,723 7.7 -22.1°
